Pablo Ortega fue el más rápido en la primera tanda de entrenamientos de la Clase 2 del Turismo Nacional, en el marco de la segunda fecha de la temporada. El piloto tucumano marcó un tiempo de 1:37.460 para ser la referencia inicial con el Fiat Argo que atiende el TB Racing.

En el Autódromo San Nicolás Ciudad, el segundo lugar quedó en manos de Lucas Tedeschi, a 13 centésimas; mientras que Emanuel Abdala finalizó en el tercer puesto, a 22 centésimas de la punta.

Por su parte, las diez primeras posiciones las completaron Christian Bodrato Mionetto, Juan Ignacio Canela, Tomás Vitar, Gerónimo Núñez, Lucas Yerobi, Nazareno Beguiristain y Marco Veronesi.

    1er. Entrenamiento TN Clase 2 – San Nicolás    

Pos. Piloto Marca Vtas. Tiempo Dif.
1 114 PABLO ORTEGA FIAT ARGO 7 1:37.460
2 4 LUCAS TEDESCHI TOYOTA ETIOS 9 1:37.598 0.138
3 2 EMANUEL ABDALA FIESTA KINETIC 5 1:37.684 0.224
4 113 CHRISTIAN BODRATO MIONETTO TOYOTA ETIOS 13 1:37.688 0.228
5 80 JUAN IGNACIO CANELA FIESTA KINETIC 11 1:37.692 0.232
6 140 TOMAS VITAR RENAULT CLIO 13 1:37.702 0.242
7 3 GERONIMO NUÑEZ TOYOTA ETIOS 10 1:37.774 0.314
8 84 LUCAS YEROBI FIESTA KINETIC 9 1:37.837 0.377
9 121 NAZARENO BEGUIRISTAIN FIAT ARGO 9 1:37.927 0.467
10 79 MARCO VERONESI TOYOTA ETIOS 7 1:38.004 0.544
11 199 JUAN IGNACIO TORRES CHEVROLET CORSA 9 1:38.053 0.593
12 56 GASTON GRASSO TOYOTA ETIOS 13 1:38.164 0.704
13 35 SERGIO FERNANDEZ NISSAN MARCH 9 1:38.192 0.732
14 9 CHRISTIAN ABDALA TOYOTA ETIOS 9 1:38.196 0.736
15 100 MAURO SALVI TOYOTA ETIOS 12 1:38.259 0.799
16 15 MIGUEL CIAURRO VW TREND 9 1:38.334 0.874
17 61 FACUNDO BUSTOS VW TREND 8 1:38.450 0.990
18 28 MATEO NUÑEZ NISSAN MARCH 11 1:38.461 1.001
19 8 SEBASTIAN PEREZ CHEVROLET ONIX 9 1:38.529 1.069
20 22 MARCOS FERNANDEZ NISSAN MARCH 10 1:38.548 1.088
21 7 FACUNDO LEANEZ TOYOTA ETIOS 13 1:38.597 1.137
22 89 RENZO BLOTTA TOYOTA ETIOS 10 1:38.650 1.190
23 116 ALEJANDRO TORRISI NISSAN MARCH 11 1:38.739 1.279
24 21 FERNANDO GOMEZ FREDES NISSAN MARCH 10 1:38.760 1.300
25 30 VALDERREY ALEJANDRO TOYOTA ETIOS 11 1:38.891 1.431
26 50 MAXIMILIANO FONTANA VW TREND 9 1:38.920 1.460
27 151 DIEGO CHEVALLEY TOYOTA ETIOS 9 1:38.942 1.482
28 10 ALEJO BORGIANI VW TREND 12 1:38.950 1.490
29 37 GABRIEL SCORDIA FIAT ARGO 12 1:39.052 1.592
30 23 DAMIAN KIRSTEIN PEUGEOT 208 7 1:39.105 1.645
31 98 ALEX CONCI FIESTA KINETIC 9 1:39.176 1.716
32 36 SANDRO ABDALA RENAULT CLIO 14 1:39.239 1.779
33 75 JOSE LUIS ARRATE TOYOTA ETIOS 12 1:39.461 2.001
34 154 FACUNDO ROTONDO FIESTA KINETIC 14 1:39.919 2.459
35 48 RICARDO SALÉ FIESTA KINETIC 14 1:40.329 2.869
36 16 DIEGO LEANEZ TOYOTA ETIOS 6 1:41.082 3.622
37 55 MARCELO GUEVARA NISSAN MARCH 4 1:41.359 3.899
38 26 AGUSTIN BONOMO DS3 1 7:49.714 6:12.254
Auto Nro. 75 Retiro de 2 vueltas por no realizar circuito oficial.

Auto nro. 21 Retiro de 1 vuelta por no realizar circuito oficial.

Sin tiempos Autos Nro. 14 y 125.

S.B

Compartir